Regional Weather Roundup
Issued by NWS Upton, NY

Current Version | Previous Version | Text Only | Print | Product List | Glossary On
Versions: 1 2 3 4 5 6 7 8 9 10 11 12 13 14 15 16 17 18 19 20 21 22 23 24 25 26 27 28 29 30 31 32 33 34 35 36 37 38 39 40 41 42 43 44 45 46 47 48 49 50
000 ASUS41 KOKX 310305 RWROKX REGIONAL WEATHER ROUNDUP NATIONAL WEATHER SERVICE NEW YORK NY 1000 PM EST FRI JAN 30 2015 NOTE: "FAIR" INDICATES FEW OR NO CLOUDS BELOW 12,000 FEET WITH NO SIGNIFICANT WEATHER AND/OR OBSTRUCTIONS TO VISIBILITY. NYZ071-072-176-178-NJZ106-104-310400- NEW YORK CITY METRO AREA CITY SKY/WX TMP DP RH WIND PRES REMARKS CENTRAL PARK CLEAR 21 5 50 NW16G30 30.02R WCI 7 LAGUARDIA APRT PTCLDY 22 9 57 NW28G36 30.01R WCI 4 KENNEDY INTL PTCLDY 22 6 50 NW28G44 30.01R WCI 4 NEWARK/LIBERTY PTCLDY 19 5 54 NW26G38 30.05R WCI 1 BRNX BOT. GARD N/A N/A N/A N/A NW9 30.01R TETERBORO PTCLDY 20 4 50 NW17G29 30.03R WCI 5 $$ NYZ177-179-078>081-310400- LONG ISLAND NEW YORK CITY SKY/WX TMP DP RH WIND PRES REMARKS FARMINGDALE CLEAR 22 7 52 NW15G28 29.96R WCI 9 ISLIP PTCLDY 22 8 55 NW18G29 29.91R WCI 7 SHIRLEY MOCLDY 24 10 55 NW24G36 29.92R WCI 8 WESTHAMPTON CLEAR 23 9 55 NW29G37 29.88F WCI 6 MONTAUK POINT N/A 26 15 63 NW22G31 29.84R WCI 12 $$ NYZ052-065-067-310400- HUDSON VALLEY CITY SKY/WX TMP DP RH WIND PRES REMARKS WHITE PLAINS CLEAR 19 5 54 NW24G38 29.94R WCI 2 NEWBURGH CLEAR 18 7 62 NW17G29 30.00R WCI 2 MONTGOMERY MOCLDY 18 5 57 NW14G24 30.00S WCI 4 POUGHKEEPSIE CLEAR 19 3 49 NW17G29 30.01R WCI 4 ALBANY PTCLDY 12 -1 56 NW15G24 30.07R WCI -4 $$ NJZ001-105-106-008-010-013-015-019>022-104-310400- NEW JERSEY CITY SKY/WX TMP DP RH WIND PRES REMARKS NEWARK/LIBERTY PTCLDY 19 5 54 NW26G38 30.05R WCI 1 TETERBORO PTCLDY 20 4 50 NW17G29 30.03R WCI 5 CALDWELL PTCLDY 18 5 57 NW15G30 30.05R WCI 4 MORRISTOWN N/A N/A N/A N/A N21G29 30.05R SOMERVILLE CLEAR 19 4 51 NW15G26 30.07R WCI 5 SUSSEX CLOUDY 17 3 54 MISG 30.03R ANDOVER N/A 15 2 56 N13G22 30.06R WCI 1 TRENTON CLEAR 20 4 50 NW17G31 30.07R WCI 5 MILLVILLE MOCLDY 26 10 50 NW20G33 30.09R WCI 12 ATLANTIC CITY CLEAR 26 9 48 NW24G38 30.05R WCI 11 WRIGHTSTOWN CLEAR 22 7 53 NW18 30.05R WCI 7 TOMS RIVER PTCLDY 21 9 58 NW16G23 30.05R WCI 7 BELMAR CLEAR 19 1 45 NW18G35 30.03R WCI 4 $$ PAZ047>061-062-071-310400- EASTERN PENNSYLVANIA CITY SKY/WX TMP DP RH WIND PRES REMARKS PHILADELPHIA PTCLDY 25 5 42 NW26G38 30.13R WCI 9 ALLENTOWN CLOUDY 19 4 51 NW15G33 30.12R WCI 5 SCRANTON CLOUDY 14 1 56 NW13G23 30.13S WCI 0 $$ CTZ002-004>006-009-010-012-RIZ004-006-007-MAZ004-011-015-310400- SOUTHERN NEW ENGLAND IN CT CITY SKY/WX TMP DP RH WIND PRES REMARKS BRADLEY INTL PTCLDY 17 5 59 NW16G25 29.92R WCI 2 HARTFORD CLEAR 18 5 57 NW23G31 29.94R WCI 0 DANBURY CLEAR 18 3 52 NW13G20 29.95R WCI 5 WTRBRY/OXFORD PTCLDY 16 0 48 NW21G28 29.90S WCI -2 BRIDGEPORT FAIR 21 8 57 NW14G28 29.94R WCI 8 MERIDEN CLEAR 18 5 57 NW18G30 29.93R WCI 2 NEW HAVEN CLEAR 20 6 55 NW17G24 29.93R WCI 5 CHESTER FAIR 19 10 68 NW12G23 29.86S WCI 7 GROTON CLEAR 21 10 62 NW21G37 29.82S WCI 5 WILLIMANTIC CLOUDY 21 9 59 NW10G23 29.85R WCI 10 IN RI CITY SKY/WX TMP DP RH WIND PRES REMARKS PROVIDENCE PTCLDY 25 11 55 NW17G26 29.77R WCI 12 BLOCK ISLAND PTCLDY 27 12 54 NW20G32 29.77S WCI 13 WESTERLY CLEAR 23 11 60 NW13G24 29.80R WCI 11 IN MA CITY SKY/WX TMP DP RH WIND PRES REMARKS BOSTON FLURRIES 23 13 65 NW30G41 29.75R WCI 5 WORCESTER PTCLDY 16 6 65 NW31G46 29.73F BLWGSNOWWCI -4 WESTFIELD FAIR 17 4 56 NW22G29 29.91R WCI 0 PROVINCETOWN CLOUDY 30 23 74 NW25G38 29.68R WCI 16 NANTUCKET CLOUDY 32 26 78 NW20G28 29.66S WCI 20 $$ ANZ330-335-338-340-345-350-353-355-310400- COASTAL MARINE OBSERVATIONS STATION/POSITION TIME SKY/WX TEMP WIND PRES VSBY WAVE AIR SEA DIR/SP/G HT/PER (UTC) (F) (DEG/KT/KT) (MB) (MI) (FT/S) NY HARB ENTRANCE 0300 25 41 300/ 31/ 37 1014.5 6/ 6 4S FIRE IS 0300 37 N/A 5/ 5 20S FIRE ISLAND 0200 41 1012.9 8/ 7 23SW MTP 0300 N/A 7/ 5 HUDSON CANYON NOT AVBL EXECUTION ROCKS 0300 24 33 290/ 27/ 39 N/A WESTERN LI SOUND 0300 24 300/ 27/ 35 N/A 3/ 3 CENTRAL LI SOUND 0200 25 35 310/ 25/ 31 N/A 4/ 4 EASTERN LI SOUND NOT AVBL ROBBINS REEF 0200 21 310/ 22/ 28 1015.5 $$ >>>>>>>>>>>>>>>>>>>>>>>>>>>> KEY <<<<<<<<<<<<<<<<<<<<<<<<<<< > < > SKY/WX - SKY CONDITION/PRESENT WEATHER < > TMP - TEMPERATURE IN FAHRENHEIT < > DP - DEWPOINT IN FAHRENHEIT < > RH - RELATIVE HUMIDITY IN PERCENT < > WIND - DIRECTION AND SPEED IN MPH < > PRES - MEAN SEA LEVEL PRESSURE IN INCHES OF HG < > WCI - WIND CHILL INDEX < > VSB - VISIBILITY IN MILES < > HX - HEAT INDEX < > TC - TEMPERATURE IN CELSIUS < > VRB - VARIABLE WIND DIRECTION < > < >>>>>>>>>>>>>>>>>>>>>>>>>>>> KEY <<<<<<<<<<<<<<<<<<<<<<<<<<<

USA.gov is the U.S. government's official web portal to all federal, state and local government web resources and services.